Weather History for Wilmington, DE

Change the Weather History Date:

Friday, February 14, 2014

  Actual Average Record
Temperature  
Mean Temperature 37 °F 35 °F  
Max Temperature 44 °F 43 °F 67 °F (1990)
Min Temperature 30 °F 27 °F -4 °F (1979)
Degree Days  
Heating Degree Days 28 30  
Month to date heating degree days 492 437  
Since 1 July heating degree days 3413 3224  
Cooling Degree Days 0 0  
Month to date cooling degree days 0 0  
Year to date cooling degree days 0 0  
Moisture  
Dew Point 26 °F    
Average Humidity 67    
Maximum Humidity 92    
Minimum Humidity 41    
Precipitation  
Precipitation 0.20 in 0.09 in 1.08 in (1919)
Month to date precipitation 4.47 1.33  
Year to date precipitation 7.70 4.34  
Snow  
Snow 2.00 in 0.30 in 2.40 in (1962)
Month to date snowfall 15.5 4.5  
Since 1 July snowfall 44.9 14.2  
Snow Depth 10.00 in    
Sea Level Pressure  
Sea Level Pressure 29.47 in    
Wind  
Wind Speed 14 mph (WNW)    
Max Wind Speed 29 mph    
Max Gust Speed 39 mph    
Visibility 7 miles    
Events Snow    
T = Trace of Precipitation, MM = Missing Value Source: NWS Daily Summary

Daily Weather History Graph

Daily Weather History Graph

Search for Another Location

Airport:

Trip Planner

Search our weather history database for the weather conditions in past years. The results will help you decide how hot, cold, wet, or windy it might be!

Date:

Astronomy

Feb. 14, 2014 Rise Set
Actual Time 6:56 AM EST 5:37 PM EST
Civil Twilight 6:28 AM EST 6:05 PM EST
Nautical Twilight 5:56 AM EST 6:36 PM EST
Astronomical Twilight 5:25 AM EST 7:08 PM EST
Moon 5:39 PM EST (2/14) 6:21 AM EST (2/14)
Length of Visible Light 11h 36m
Length of Day
10h 41m
Full, 100% of the Moon is Illuminated
Feb 14
Full
Feb 14
Full
Feb 22
Last Quarter
Mar 1
New
Mar 8
First Quarter

Hourly Weather History & Observations

Time (EST) Temp. Windchill Dew Point Humidity Pressure Visibility Wind Dir Wind Speed Gust Speed Precip Events Conditions
12:06 AM 32.0 °F 20.1 °F 30.0 °F 92% 29.22 in 1.5 mi WNW 19.6 mph 29.9 mph 0.00 in Snow Light Snow
12:18 AM 32.0 °F 20.1 °F 30.0 °F 92% 29.23 in 1.2 mi WNW 19.6 mph 29.9 mph 0.01 in Snow Light Snow
12:30 AM 32.0 °F 18.1 °F 28.9 °F 88% 29.24 in 3.0 mi WNW 27.6 mph 39.1 mph 0.01 in Snow Light Snow
12:33 AM 32.0 °F 19.2 °F 28.9 °F 88% 29.24 in 2.5 mi WNW 23.0 mph 39.1 mph 0.01 in Snow Light Snow
12:47 AM 32.0 °F 18.9 °F 30.2 °F 93% 29.24 in 1.2 mi WNW 24.2 mph 33.4 mph 0.01 in Snow Light Snow
12:51 AM 32.0 °F 18.4 °F 30.0 °F 92% 29.25 in 1.0 mi WNW 26.5 mph 36.8 mph 0.01 in Snow Light Snow
1:00 AM 32.0 °F 19.5 °F 30.0 °F 92% 29.25 in 0.8 mi WNW 21.9 mph 31.1 mph 0.00 in Snow Light Snow
1:03 AM 32.0 °F 19.8 °F 30.0 °F 92% 29.26 in 1.0 mi WNW 20.7 mph 31.1 mph 0.00 in Snow Light Snow
1:17 AM 32.0 °F 18.9 °F 28.9 °F 88% 29.26 in 1.5 mi WNW 24.2 mph 31.1 mph 0.00 in Snow Light Snow
1:29 AM 32.0 °F 19.5 °F 28.9 °F 88% 29.27 in 2.5 mi WNW 21.9 mph 28.8 mph 0.01 in Snow Light Snow
1:37 AM 33.1 °F 21.2 °F 28.9 °F 85% 29.26 in 4.0 mi WNW 20.7 mph 29.9 mph 0.01 in Snow Light Snow
1:51 AM 34.0 °F 22.4 °F 28.9 °F 82% 29.27 in 10.0 mi WNW 20.7 mph 26.5 mph 0.01 in   Overcast
2:51 AM 35.1 °F 23.5 °F 30.0 °F 82% 29.30 in 10.0 mi WNW 21.9 mph 28.8 mph N/A   Mostly Cloudy
3:51 AM 36.0 °F 26.3 °F 30.0 °F 79% 29.33 in 10.0 mi West 16.1 mph 27.6 mph N/A   Partly Cloudy
4:51 AM 36.0 °F 23.9 °F 27.0 °F 70% 29.38 in 10.0 mi West 25.3 mph 32.2 mph N/A   Clear
5:51 AM 34.0 °F 22.7 °F 19.9 °F 56% 29.42 in 10.0 mi WNW 19.6 mph 29.9 mph N/A   Clear
6:51 AM 32.0 °F 22.1 °F 18.0 °F 56% 29.46 in 10.0 mi West 13.8 mph - N/A   Clear
7:51 AM 33.1 °F 22.6 °F 19.9 °F 59% 29.51 in 10.0 mi WSW 16.1 mph 24.2 mph N/A   Clear
8:51 AM 36.0 °F 26.0 °F 21.0 °F 55% 29.54 in 10.0 mi West 17.3 mph 23.0 mph N/A   Clear
9:51 AM 37.9 °F 29.2 °F 21.9 °F 53% 29.56 in 10.0 mi WSW 15.0 mph 26.5 mph N/A   Overcast
10:51 AM 39.9 °F 31.1 °F 23.0 °F 51% 29.57 in 10.0 mi WSW 17.3 mph 25.3 mph N/A   Mostly Cloudy
11:51 AM 41.0 °F 32.5 °F 25.0 °F 53% 29.59 in 10.0 mi WSW 17.3 mph - N/A   Overcast
12:51 PM 41.0 °F 32.8 °F 25.0 °F 53% 29.59 in 10.0 mi West 16.1 mph 25.3 mph N/A   Mostly Cloudy
1:51 PM 44.1 °F 36.8 °F 25.0 °F 47% 29.60 in 10.0 mi West 16.1 mph - N/A   Clear
2:51 PM 44.1 °F 35.7 °F 24.1 °F 45% 29.62 in 10.0 mi WNW 20.7 mph 27.6 mph N/A   Clear
3:51 PM 44.1 °F 37.1 °F 23.0 °F 43% 29.64 in 10.0 mi West 15.0 mph - N/A   Clear
4:51 PM 42.1 °F 36.6 °F 24.1 °F 49% 29.67 in 10.0 mi West 9.2 mph - N/A   Clear
5:51 PM 41.0 °F - 23.0 °F 49% 29.72 in 10.0 mi Calm Calm - N/A   Clear
6:51 PM 37.9 °F 34.4 °F 24.1 °F 57% 29.76 in 10.0 mi SSW 4.6 mph - N/A   Clear
7:51 PM 37.9 °F 35.5 °F 23.0 °F 55% 29.76 in 10.0 mi SSW 3.5 mph - N/A   Clear
8:51 PM 33.1 °F 28.7 °F 24.1 °F 70% 29.76 in 10.0 mi North 4.6 mph - N/A   Scattered Clouds
9:51 PM 32.0 °F 28.7 °F 25.0 °F 75% 29.77 in 10.0 mi NNE 3.5 mph - N/A   Overcast
10:51 PM 30.9 °F 26.2 °F 26.1 °F 82% 29.76 in 9.0 mi NNE 4.6 mph - N/A   Scattered Clouds
11:51 PM 32.0 °F - 26.1 °F 79% 29.80 in 9.0 mi Calm Calm - N/A   Overcast